User: anonymous   Login
Location: Unspecified
(0.0000°N, 0.0000°E)
Time: 18:50:51
(UTC+00:00)
Language:

Orbcomm F1 (FM01) - Orbit

View from above orbital plane
View from above orbital plane
View from above satellite
View from above satellite

Ground track
Ground track

The orbit data is extracted from the following two-line orbital elements,

1 23545U 95017A   19340.65547273  .00000274  00000-0  55949-4 0  9996
2 23545  69.9695 316.8075 0001967  64.6108 295.5240 14.71478345314901
Epoch (UTC): 06 December 2019 15:43:52
Eccentricity: 0.0001967
inclination: 69.9695°
perigee height: 655 km
apogee height: 658 km
right ascension of ascending node: 316.8075°
argument of perigee: 64.6108°
revolutions per day: 14.71478345
mean anomaly at epoch: 295.5240°
orbit number at epoch: 31490

The dashed part of the orbit path shows where the satellite is in the earth's shadow,  

DLR